This is the latest recevied weather packets stored in our database for station/object WA6OOO. If no packets are shown the sender has not sent any weather packets the latest 10 day(s).
| Time | Temp. | Humidity | Pressure | Rain* | Wind** | Luminosity | Snow |
|---|---|---|---|---|---|---|---|
| 1788568698 | 22.78° C | 70% | 1016.2 hPa | 0 mm | - | 138 W/m² | - |
| 1788568394 | 22.78° C | 70% | 1016.1 hPa | 0 mm | - | 152 W/m² | - |
| 1788568089 | 22.78° C | 71% | 1016.1 hPa | 0 mm | - | 166 W/m² | - |
| 1788567789 | 22.78° C | 73% | 1016 hPa | 0 mm | - | 178 W/m² | - |
| 1788567484 | 23.33° C | 71% | 1016.2 hPa | 0 mm | - | 193 W/m² | - |
| 1788567183 | 23.33° C | 72% | 1016.1 hPa | 0 mm | - | 207 W/m² | - |
| 1788566879 | 23.89° C | 71% | 1016.2 hPa | 0 mm | - | 221 W/m² | - |
| 1788566574 | 23.89° C | 70% | 1016.1 hPa | 0 mm | - | 234 W/m² | - |
| 1788566269 | 23.89° C | 70% | 1016.1 hPa | 0 mm | - | 247 W/m² | - |
| 1788565964 | 23.89° C | 68% | 1016 hPa | 0 mm | - | 264 W/m² | - |
| 1788565675 | 24.44° C | 66% | 1016.3 hPa | 0 mm | - | 277 W/m² | - |
| 1788565354 | 24.44° C | 67% | 1016.3 hPa | 0 mm | - | 292 W/m² | - |
| 1788565050 | 24.44° C | 63% | 1016.2 hPa | 0 mm | - | 304 W/m² | - |
| 1788564746 | 24.44° C | 65% | 1016.2 hPa | 0 mm | - | 319 W/m² | - |
| 1788564443 | 24.44° C | 64% | 1016.3 hPa | 0 mm | - | 334 W/m² | - |
| 1788564139 | 25° C | 61% | 1016.3 hPa | 0 mm | - | 346 W/m² | - |
| 1788563834 | 25° C | 61% | 1016.4 hPa | 0 mm | - | 362 W/m² | - |
| 1788563530 | 25° C | 61% | 1016.3 hPa | 0 mm | - | 375 W/m² | - |
| 1788563228 | 24.44° C | 61% | 1016.4 hPa | 0 mm | - | 391 W/m² | - |
| 1788562923 | 24.44° C | 61% | 1016.3 hPa | 0 mm | - | 405 W/m² | - |
| 1788562622 | 24.44° C | 63% | 1016.2 hPa | 0 mm | - | 420 W/m² | - |
| 1788562316 | 24.44° C | 64% | 1016.5 hPa | 0 mm | - | 434 W/m² | - |
| 1788562011 | 24.44° C | 61% | 1016.4 hPa | 0 mm | - | 450 W/m² | - |
| 1788561711 | 25° C | 63% | 1016.5 hPa | 0 mm | - | 465 W/m² | - |
| 1788561410 | 25° C | 62% | 1016.5 hPa | 0 mm | - | 473 W/m² | - |
* Rain latest hour (hover to see other rain measurements)
** Current wind speed in m/s (hover to see current wind gust speed)